Regional Weather Roundup
Issued by NWS Bismarck, ND

Home | Current Version | Previous Version | Text Only | Print | Product List | Glossary On
Versions: 1 2 3 4 5 6 7 8 9 10 11 12 13 14 15 16 17 18 19 20 21 22 23 24 25 26 27 28 29 30 31 32 33 34 35 36 37 38 39 40 41 42 43 44 45 46 47 48 49 50
000
ASUS43 KBIS 070610
RWRBIS

NWR BROADCAST TEXT
NATIONAL WEATHER SERVICE BISMARCK ND
1200 AM CST SUN FEB 07 2016

NOTE: "FAIR" INDICATES FEW OR NO CLOUDS BELOW 12,000 FEET WITH NO
SIGNIFICANT WEATHER AND/OR OBSTRUCTIONS TO VISIBILITY.


CITY           SKY/WX    TMP DP  RH WIND       PRES   REMARKS
WILLISTON      CLEAR     35  26  69 W20G25    29.82R
MINOT          LGT RAIN  40  21  46 W31G40    29.65R
MINOT AFB      CLOUDY    37  24  58 NW30G39   29.63R
BISMARCK       CLEAR     41  21  44 W22G30    29.77R
DICKINSON      CLEAR     34  23  64 W23G31    29.84R
GARRISON         N/A     36  21  54 NW25G35   29.71R
HETTINGER ARPT PTCLDY    35  22  58 W24G30    29.91R
JAMESTOWN      CLOUDY    37  30  75 NW25G41   29.60S
BEACH          CLOUDY    36  25  64 W29G39    29.95R
CARRINGTON     FLURRIES  36  34  93 NW28G38   29.60S
HAZEN          FAIR      37  19  48 W21G29    29.79R
LINTON         FAIR      37  27  65 W18G28    29.79R
MANDAN         FAIR      36  23  60 W24G35    29.77R
OAKES          MOCLDY    37  34  87 W18       29.65S
STANLEY        FAIR      34  25  69 W23G33    29.73R
TIOGA          FAIR      32  27  80 W28       29.78S WCI  18
$$

CITY           SKY/WX    TMP DP  RH WIND       PRES   REMARKS
GRAND FORKS    CLOUDY    38  32  79 W23       29.46S
GRAND FORKS AF CLOUDY    38  33  80 W18G28    29.47S
DEVILS LAKE    LGT SNOW  34  32  93 W31G38    29.51S FOG     WCI  20
FARGO          CLOUDY    39  32  76 W20G29    29.55F
CAVALIER       CLOUDY    37  32  81 W18G25    29.41S
GRAFTON        CLOUDY    37  34  87 W18       29.45S
GWINNER        FAIR      39  34  81 W18G30    29.63S
LANGDON        CLOUDY    36  32  87 W26       29.42S
ROLLA          FLURRIES  36  32  87 NW28G43   29.48R
WALHALLA       FAIR      37  36  93 W15G24    29.40S
$$

CITY           SKY/WX    TMP DP  RH WIND       PRES   REMARKS
ABERDEEN       PTCLDY    41  27  57 W20G25    29.72F
MOBRIDGE       CLEAR     40  26  57 NW20G32   29.79R
BUFFALO          N/A     38  23  55 W40G49    29.91R
RAPID CITY     CLEAR     38  18  44 NW25      30.02R
GLASGOW        CLOUDY    33  28  81 W18       29.96R
SIDNEY         PTCLDY    36  27  69 W26G38    29.87R
WOLF POINT     CLOUDY    34  29  82 W18       29.94R
GLENDIVE       CLOUDY    32  30  93 W28G36    29.98R WCI  18
MILES CITY     MOCLDY    35  24  64 NW24      30.06R
BAKER          CLOUDY    34  25  69 W30G44    29.98S
$$

CITY           SKY/WX    TMP DP  RH WIND       PRES   REMARKS
BILLINGS       PTCLDY    38  14  37 NW25G33   30.16R
GREAT FALLS    CLEAR     30  16  56 W15       30.23R WCI  19
REGINA         MOCLDY    34  27  75 W31G43    29.67F WCI  20
$$




USA.gov is the U.S. government's official web portal to all federal, state and local government web resources and services.